Location: Henham
(51.9333°N, 0.2500°E)
Time: 00:49:15
(UTC+00:00)

Cosmos 1725 Rocket - Pass Details

Date: 23 October 2019
Orbit: 963 x 990 km, 82.9° (Epoch: 20 November)

Event Time Altitude Azimuth Distance (km) Brightness Sun altitude
Rises 18:30:53 0° 352° (N) 3,694 7.2 -16.3°
Reaches altitude 10° 18:33:32 10° 359° (N) 2,747 6.4 -16.7°
Maximum altitude 18:39:33 46° 71° (ENE) 1,312 4.3 -17.7°
Enters shadow 18:43:51 19° 136° (SE) 2,166 5.4 -18.3°
